UTY880 YBBN-YTEE

Flight info

Callsign UTY880
Flight time 2h 14m
Altitude 32000
Route BN V250 UNVAT J89 SARIK
Aircraft F100/M-SDFIRWY/H

Departure

Time 2026-05-03 22:31
Airport Brisbane International Airport (YBBN)

Arrival

Time 2026-05-04 00:45
Airport Trepell Airport (YTEE)
Time Latitude Longitude Altitude Speed Heading
2026-05-03 21:50 -27.38836 153.11844 15 ft 0 kts 70°
2026-05-03 22:16 -27.38838 153.11838 15 ft 2 kts 69°
2026-05-03 22:17 -27.38843 153.11824 19 ft 2 kts 69°
2026-05-03 22:17 -27.38847 153.11811 18 ft 2 kts 69°
2026-05-03 22:17 -27.38852 153.11797 18 ft 2 kts 70°
2026-05-03 22:17 -27.38852 153.11783 15 ft 2 kts 115°
2026-05-03 22:18 -27.38848 153.11776 15 ft 0 kts 132°
2026-05-03 22:20 -27.38851 153.11780 15 ft 2 kts 132°
2026-05-03 22:20 -27.38870 153.11797 15 ft 5 kts 149°
2026-05-03 22:20 -27.38904 153.11829 15 ft 8 kts 125°
2026-05-03 22:20 -27.38933 153.11887 16 ft 10 kts 118°
2026-05-03 22:21 -27.38963 153.11955 15 ft 10 kts 116°
2026-05-03 22:21 -27.39003 153.12029 15 ft 12 kts 121°
2026-05-03 22:21 -27.39042 153.12115 15 ft 12 kts 102°
2026-05-03 22:21 -27.39003 153.12187 15 ft 12 kts 29°
2026-05-03 22:22 -27.38921 153.12233 17 ft 15 kts 26°
2026-05-03 22:22 -27.38821 153.12290 17 ft 17 kts 27°
2026-05-03 22:22 -27.38704 153.12357 17 ft 20 kts 27°
2026-05-03 22:22 -27.38581 153.12427 15 ft 20 kts 27°
2026-05-03 22:23 -27.38461 153.12496 15 ft 19 kts 27°
2026-05-03 22:23 -27.38343 153.12564 15 ft 19 kts 27°
2026-05-03 22:23 -27.38227 153.12630 16 ft 19 kts 27°
2026-05-03 22:23 -27.38113 153.12695 15 ft 18 kts 25°
2026-05-03 22:24 -27.38000 153.12759 17 ft 18 kts 26°
2026-05-03 22:24 -27.37916 153.12698 17 ft 16 kts 296°
2026-05-03 22:24 -27.37866 153.12584 15 ft 17 kts 296°
2026-05-03 22:24 -27.37812 153.12463 16 ft 18 kts 297°
2026-05-03 22:25 -27.37754 153.12333 15 ft 19 kts 298°
2026-05-03 22:25 -27.37692 153.12201 16 ft 19 kts 297°
2026-05-03 22:25 -27.37653 153.12116 16 ft 18 kts 297°
2026-05-03 22:25 -27.37574 153.11944 15 ft 20 kts 297°
2026-05-03 22:26 -27.37529 153.11846 15 ft 22 kts 297°
2026-05-03 22:26 -27.37458 153.11689 17 ft 23 kts 297°
2026-05-03 22:26 -27.37380 153.11554 15 ft 19 kts 343°
2026-05-03 22:26 -27.37261 153.11607 16 ft 19 kts 27°
2026-05-03 22:27 -27.37137 153.11677 17 ft 21 kts 26°
2026-05-03 22:27 -27.36999 153.11755 15 ft 23 kts 27°
2026-05-03 22:27 -27.36847 153.11843 16 ft 26 kts 27°
2026-05-03 22:27 -27.36693 153.11931 15 ft 27 kts 27°
2026-05-03 22:28 -27.36518 153.12030 15 ft 28 kts 27°
2026-05-03 22:28 -27.36359 153.12121 17 ft 10 kts 28°
2026-05-03 22:28 -27.36296 153.12137 15 ft 8 kts
2026-05-03 22:28 -27.36253 153.12175 16 ft 9 kts 39°
2026-05-03 22:29 -27.36186 153.12222 17 ft 14 kts 27°
2026-05-03 22:29 -27.36035 153.12307 15 ft 28 kts 26°
2026-05-03 22:29 -27.35890 153.12285 16 ft 21 kts 326°
2026-05-03 22:29 -27.35786 153.12176 20 ft 19 kts 283°
2026-05-03 22:30 -27.35858 153.12079 19 ft 17 kts 207°
2026-05-03 22:30 -27.36126 153.11926 21 ft 77 kts 207°
2026-05-03 22:30 -27.36806 153.11537 15 ft 140 kts 207°
2026-05-03 22:30 -27.37752 153.10997 307 ft 157 kts 207°
2026-05-03 22:31 -27.38755 153.10411 782 ft 170 kts 210°
2026-05-03 22:31 -27.39692 153.09512 1286 ft 179 kts 223°
2026-05-03 22:31 -27.40591 153.08542 1905 ft 182 kts 221°
2026-05-03 22:31 -27.41560 153.07472 2051 ft 209 kts 222°
2026-05-03 22:32 -27.42648 153.06280 2267 ft 233 kts 222°
2026-05-03 22:32 -27.43832 153.04904 2459 ft 259 kts 233°
2026-05-03 22:32 -27.44381 153.02928 2789 ft 274 kts 271°
2026-05-03 22:32 -27.43798 153.00908 3494 ft 270 kts 307°
2026-05-03 22:33 -27.42565 152.99361 4132 ft 270 kts 319°
2026-05-03 22:33 -27.41145 152.97895 4622 ft 278 kts 321°
2026-05-03 22:33 -27.39675 152.96426 5095 ft 286 kts 321°
2026-05-03 22:33 -27.38203 152.94952 5913 ft 279 kts 321°
2026-05-03 22:34 -27.36765 152.93503 6605 ft 278 kts 321°
2026-05-03 22:34 -27.35313 152.92034 7091 ft 282 kts 320°
2026-05-03 22:34 -27.33855 152.90558 7629 ft 283 kts 319°
2026-05-03 22:34 -27.32388 152.89074 8139 ft 284 kts 319°
2026-05-03 22:35 -27.30913 152.87581 8638 ft 286 kts 319°
2026-05-03 22:35 -27.29432 152.86082 9114 ft 288 kts 318°
2026-05-03 22:35 -27.27939 152.84571 9576 ft 289 kts 317°
2026-05-03 22:35 -27.26443 152.83058 10044 ft 290 kts 317°
2026-05-03 22:36 -27.24915 152.81512 10232 ft 302 kts 317°
2026-05-03 22:36 -27.23325 152.79904 10384 ft 314 kts 317°
2026-05-03 22:36 -27.21673 152.78233 10520 ft 326 kts 317°
2026-05-03 22:36 -27.19996 152.76467 10694 ft 336 kts 311°
2026-05-03 22:37 -27.18581 152.74348 11014 ft 340 kts 302°
2026-05-03 22:37 -27.17358 152.72076 11465 ft 341 kts 299°
2026-05-03 22:37 -27.16203 152.69739 11870 ft 343 kts 298°
2026-05-03 22:37 -27.15073 152.67374 12342 ft 344 kts 297°
2026-05-03 22:38 -27.13950 152.64998 12793 ft 345 kts 297°
2026-05-03 22:38 -27.12827 152.62612 13247 ft 346 kts 297°
2026-05-03 22:38 -27.11700 152.60214 13691 ft 348 kts 297°
2026-05-03 22:38 -27.10572 152.57813 14112 ft 349 kts 297°
2026-05-03 22:39 -27.09438 152.55399 14487 ft 350 kts 297°
2026-05-03 22:39 -27.08296 152.52969 14838 ft 352 kts 297°
2026-05-03 22:39 -27.07153 152.50535 15250 ft 354 kts 297°
2026-05-03 22:39 -27.06003 152.48090 15647 ft 355 kts 298°
2026-05-03 22:40 -27.04831 152.45646 16039 ft 357 kts 298°
2026-05-03 22:40 -27.03650 152.43191 16426 ft 358 kts 298°
2026-05-03 22:40 -27.02450 152.40696 16815 ft 360 kts 298°
2026-05-03 22:40 -27.01264 152.38220 17184 ft 361 kts 298°
2026-05-03 22:41 -27.00076 152.35733 17573 ft 362 kts 298°
2026-05-03 22:41 -26.98885 152.33238 17936 ft 364 kts 298°
2026-05-03 22:41 -26.97688 152.30728 18288 ft 366 kts 298°
2026-05-03 22:41 -26.96487 152.28207 18619 ft 367 kts 298°
2026-05-03 22:42 -26.95285 152.25683 18941 ft 367 kts 298°
2026-05-03 22:42 -26.94082 152.23155 19271 ft 368 kts 298°
2026-05-03 22:42 -26.92879 152.20627 19604 ft 368 kts 298°
2026-05-03 22:42 -26.91676 152.18096 19919 ft 368 kts 298°
2026-05-03 22:43 -26.90473 152.15566 20230 ft 368 kts 298°
2026-05-03 22:43 -26.89268 152.13030 20544 ft 369 kts 298°
2026-05-03 22:43 -26.88060 152.10488 20840 ft 369 kts 298°
2026-05-03 22:43 -26.86854 152.07948 21135 ft 370 kts 298°
2026-05-03 22:44 -26.85645 152.05402 21424 ft 370 kts 298°
2026-05-03 22:44 -26.84436 152.02854 21714 ft 371 kts 298°
2026-05-03 22:44 -26.83225 152.00300 21989 ft 372 kts 297°
2026-05-03 22:44 -26.82013 151.97742 22275 ft 372 kts 297°
2026-05-03 22:45 -26.80801 151.95186 22547 ft 372 kts 297°
2026-05-03 22:45 -26.79578 151.92623 22802 ft 373 kts 298°
2026-05-03 22:45 -26.78349 151.90068 23115 ft 373 kts 298°
2026-05-03 22:45 -26.77118 151.87516 23401 ft 373 kts 298°
2026-05-03 22:46 -26.75882 151.84959 23655 ft 374 kts 298°
2026-05-03 22:46 -26.74641 151.82397 23896 ft 375 kts 298°
2026-05-03 22:46 -26.73397 151.79829 24115 ft 376 kts 298°
2026-05-03 22:46 -26.72148 151.77256 24335 ft 377 kts 298°
2026-05-03 22:47 -26.70896 151.74673 24557 ft 378 kts 298°
2026-05-03 22:47 -26.69642 151.72090 24785 ft 379 kts 298°
2026-05-03 22:47 -26.68385 151.69496 25013 ft 380 kts 298°
2026-05-03 22:47 -26.67125 151.66899 25247 ft 381 kts 298°
2026-05-03 22:48 -26.65861 151.64292 25477 ft 382 kts 298°
2026-05-03 22:48 -26.64596 151.61679 25712 ft 382 kts 298°
2026-05-03 22:48 -26.63313 151.59032 25941 ft 383 kts 298°
2026-05-03 22:48 -26.62043 151.56410 26151 ft 384 kts 298°
2026-05-03 22:49 -26.60772 151.53783 26340 ft 385 kts 297°
2026-05-03 22:49 -26.59499 151.51153 26537 ft 386 kts 297°
2026-05-03 22:49 -26.58222 151.48514 26756 ft 386 kts 297°
2026-05-03 22:49 -26.56950 151.45884 27033 ft 384 kts 297°
2026-05-03 22:50 -26.55684 151.43265 27312 ft 382 kts 297°
2026-05-03 22:50 -26.54424 151.40656 27564 ft 381 kts 297°
2026-05-03 22:50 -26.53169 151.38057 27824 ft 380 kts 297°
2026-05-03 22:50 -26.51917 151.35462 28079 ft 379 kts 297°
2026-05-03 22:51 -26.50672 151.32881 28329 ft 377 kts 297°
2026-05-03 22:51 -26.49429 151.30304 28572 ft 376 kts 297°
2026-05-03 22:51 -26.48191 151.27737 28802 ft 375 kts 297°
2026-05-03 22:51 -26.46956 151.25173 29019 ft 374 kts 297°
2026-05-03 22:52 -26.45726 151.22620 29256 ft 373 kts 297°
2026-05-03 22:52 -26.44501 151.20075 29550 ft 370 kts 297°
2026-05-03 22:52 -26.43290 151.17560 29952 ft 365 kts 297°
2026-05-03 22:52 -26.42074 151.15091 30257 ft 362 kts 298°
2026-05-03 22:53 -26.40851 151.12643 30462 ft 360 kts 298°
2026-05-03 22:53 -26.39632 151.10207 30650 ft 359 kts 297°
2026-05-03 22:53 -26.38418 151.07777 30812 ft 358 kts 297°
2026-05-03 22:53 -26.37207 151.05349 30964 ft 357 kts 297°
2026-05-03 22:54 -26.36005 151.02934 31144 ft 356 kts 297°
2026-05-03 22:54 -26.34805 151.00521 31282 ft 355 kts 297°
2026-05-03 22:54 -26.33610 150.98114 31408 ft 355 kts 297°
2026-05-03 22:54 -26.32414 150.95704 31511 ft 356 kts 297°
2026-05-03 22:55 -26.31212 150.93281 31555 ft 358 kts 297°
2026-05-03 22:55 -26.28796 150.88409 31554 ft 359 kts 297°
2026-05-03 22:56 -26.26387 150.83547 31545 ft 358 kts 297°
2026-05-03 22:56 -26.23966 150.78656 31546 ft 358 kts 297°
2026-05-03 22:57 -26.21563 150.73798 31557 ft 358 kts 297°
2026-05-03 22:57 -26.19163 150.68942 31555 ft 358 kts 297°
2026-05-03 22:58 -26.17173 150.64913 31553 ft 358 kts 297°
2026-05-03 22:58 -26.14779 150.60062 31553 ft 358 kts 297°
2026-05-03 22:59 -26.12385 150.55208 31554 ft 358 kts 297°
2026-05-03 22:59 -26.09994 150.50358 31553 ft 358 kts 297°
2026-05-03 23:00 -26.07605 150.45508 31550 ft 357 kts 297°
2026-05-03 23:00 -26.05222 150.40664 31553 ft 357 kts 297°
2026-05-03 23:01 -26.02839 150.35823 31552 ft 357 kts 297°
2026-05-03 23:01 -26.00455 150.30974 31549 ft 357 kts 297°
2026-05-03 23:02 -25.98058 150.26097 31547 ft 357 kts 297°
2026-05-03 23:02 -25.95680 150.21253 31547 ft 357 kts 297°
2026-05-03 23:03 -25.93303 150.16407 31555 ft 357 kts 297°
2026-05-03 23:03 -25.90931 150.11568 31553 ft 357 kts 297°
2026-05-03 23:04 -25.88557 150.06723 31528 ft 357 kts 297°
2026-05-03 23:04 -25.86180 150.01867 31538 ft 358 kts 297°
2026-05-03 23:05 -25.83804 149.97010 31541 ft 358 kts 297°
2026-05-03 23:05 -25.81429 149.92153 31539 ft 358 kts 297°
2026-05-03 23:06 -25.79200 149.87222 31535 ft 358 kts 294°
2026-05-03 23:06 -25.77093 149.82223 31530 ft 358 kts 294°
2026-05-03 23:07 -25.74986 149.77220 31532 ft 358 kts 294°
2026-05-03 23:07 -25.72878 149.72225 31533 ft 358 kts 294°
2026-05-03 23:08 -25.70770 149.67231 31533 ft 357 kts 294°
2026-05-03 23:08 -25.68662 149.62238 31533 ft 357 kts 294°
2026-05-03 23:09 -25.66542 149.57215 31537 ft 357 kts 294°
2026-05-03 23:09 -25.64437 149.52223 31536 ft 357 kts 294°
2026-05-03 23:10 -25.62337 149.47237 31536 ft 357 kts 294°
2026-05-03 23:10 -25.60236 149.42247 31537 ft 357 kts 294°
2026-05-03 23:11 -25.58138 149.37258 31537 ft 357 kts 294°
2026-05-03 23:11 -25.56041 149.32270 31538 ft 357 kts 294°
2026-05-03 23:12 -25.53947 149.27282 31538 ft 357 kts 294°
2026-05-03 23:12 -25.51853 149.22292 31537 ft 357 kts 294°
2026-05-03 23:13 -25.49764 149.17308 31535 ft 357 kts 294°
2026-05-03 23:13 -25.47674 149.12318 31535 ft 357 kts 294°
2026-05-03 23:14 -25.45587 149.07330 31534 ft 357 kts 294°
2026-05-03 23:14 -25.43501 149.02343 31523 ft 357 kts 295°
2026-05-03 23:15 -25.41419 148.97362 31534 ft 357 kts 295°
2026-05-03 23:15 -25.39342 148.92381 31540 ft 356 kts 295°
2026-05-03 23:16 -25.37265 148.87402 31525 ft 356 kts 295°
2026-05-03 23:16 -25.35192 148.82425 31530 ft 356 kts 295°
2026-05-03 23:17 -25.33106 148.77414 31533 ft 357 kts 295°
2026-05-03 23:17 -25.31038 148.72439 31494 ft 356 kts 295°
2026-05-03 23:18 -25.28961 148.67447 31522 ft 357 kts 294°
2026-05-03 23:18 -25.26885 148.62455 31517 ft 357 kts 295°
2026-05-03 23:19 -25.24815 148.57465 31508 ft 357 kts 294°
2026-05-03 23:19 -25.22745 148.52471 31510 ft 358 kts 294°
2026-05-03 23:20 -25.20677 148.47479 31515 ft 358 kts 294°
2026-05-03 23:20 -25.18610 148.42490 31525 ft 357 kts 294°
2026-05-03 23:21 -25.16550 148.37503 31518 ft 357 kts 295°
2026-05-03 23:21 -25.14486 148.32512 31510 ft 357 kts 294°
2026-05-03 23:22 -25.11401 148.25033 31520 ft 357 kts 294°
2026-05-03 23:22 -25.09346 148.20046 31522 ft 357 kts 295°
2026-05-03 23:23 -25.07292 148.15063 31523 ft 357 kts 294°
2026-05-03 23:23 -25.05237 148.10071 31511 ft 358 kts 294°
2026-05-03 23:24 -25.03185 148.05086 31520 ft 357 kts 294°
2026-05-03 23:24 -25.01118 148.00059 31528 ft 357 kts 294°
2026-05-03 23:25 -24.99071 147.95068 31520 ft 357 kts 294°
2026-05-03 23:25 -24.97031 147.90093 31531 ft 356 kts 294°
2026-05-03 23:26 -24.94995 147.85124 31529 ft 356 kts 294°
2026-05-03 23:26 -24.92959 147.80154 31526 ft 356 kts 294°
2026-05-03 23:27 -24.90927 147.75189 31525 ft 356 kts 294°
2026-05-03 23:27 -24.88895 147.70218 31527 ft 356 kts 294°
2026-05-03 23:28 -24.86865 147.65250 31525 ft 356 kts 294°
2026-05-03 23:28 -24.84837 147.60281 31524 ft 356 kts 294°
2026-05-03 23:29 -24.82809 147.55311 31523 ft 356 kts 294°
2026-05-03 23:29 -24.80783 147.50340 31522 ft 356 kts 294°
2026-05-03 23:30 -24.78759 147.45369 31517 ft 356 kts 294°
2026-05-03 23:30 -24.76738 147.40401 31514 ft 356 kts 294°
2026-05-03 23:31 -24.74717 147.35431 31522 ft 355 kts 294°
2026-05-03 23:31 -24.73030 147.31274 31523 ft 355 kts 294°
2026-05-03 23:32 -24.71017 147.26317 31517 ft 355 kts 294°
2026-05-03 23:32 -24.69003 147.21355 31516 ft 355 kts 294°
2026-05-03 23:33 -24.66995 147.16398 31496 ft 355 kts 294°
2026-05-03 23:33 -24.64977 147.11416 31510 ft 357 kts 294°
2026-05-03 23:34 -24.62964 147.06441 31514 ft 356 kts 294°
2026-05-03 23:34 -24.60955 147.01470 31507 ft 356 kts 294°
2026-05-03 23:35 -24.58947 146.96500 31508 ft 356 kts 293°
2026-05-03 23:35 -24.56942 146.91533 31510 ft 356 kts 293°
2026-05-03 23:36 -24.54940 146.86567 31512 ft 356 kts 293°
2026-05-03 23:36 -24.52939 146.81600 31510 ft 356 kts 293°
2026-05-03 23:37 -24.50939 146.76632 31511 ft 356 kts 293°
2026-05-03 23:37 -24.48939 146.71661 31509 ft 356 kts 293°
2026-05-03 23:38 -24.46927 146.66656 31507 ft 356 kts 293°
2026-05-03 23:38 -24.44932 146.61687 31503 ft 356 kts 293°
2026-05-03 23:39 -24.42935 146.56712 31505 ft 356 kts 293°
2026-05-03 23:39 -24.40942 146.51739 31504 ft 356 kts 293°
2026-05-03 23:40 -24.38868 146.46810 31501 ft 356 kts 295°
2026-05-03 23:40 -24.36693 146.41930 31502 ft 356 kts 295°
2026-05-03 23:41 -24.34512 146.37059 31502 ft 356 kts 295°
2026-05-03 23:41 -24.32332 146.32185 31502 ft 356 kts 295°
2026-05-03 23:42 -24.30156 146.27317 31504 ft 355 kts 295°
2026-05-03 23:42 -24.27983 146.22453 31505 ft 355 kts 295°
2026-05-03 23:43 -24.25811 146.17586 31503 ft 355 kts 295°
2026-05-03 23:43 -24.23641 146.12720 31504 ft 355 kts 295°
2026-05-03 23:44 -24.21473 146.07857 31498 ft 355 kts 295°
2026-05-03 23:44 -24.19308 146.02994 31499 ft 355 kts 295°
2026-05-03 23:45 -24.17143 145.98131 31496 ft 355 kts 295°
2026-05-03 23:45 -24.14967 145.93236 31496 ft 355 kts 295°
2026-05-03 23:46 -24.12795 145.88350 31496 ft 358 kts 295°
2026-05-03 23:46 -24.10619 145.83449 31495 ft 358 kts 295°
2026-05-03 23:47 -24.08446 145.78552 31490 ft 358 kts 295°
2026-05-03 23:47 -24.06276 145.73658 31494 ft 357 kts 295°
2026-05-03 23:48 -24.04109 145.68767 31493 ft 357 kts 295°
2026-05-03 23:48 -24.01937 145.63860 31476 ft 359 kts 295°
2026-05-03 23:49 -23.99761 145.58942 31484 ft 359 kts 295°
2026-05-03 23:49 -23.97588 145.54027 31476 ft 359 kts 295°
2026-05-03 23:50 -23.95783 145.49943 31481 ft 359 kts 295°
2026-05-03 23:50 -23.93248 145.44201 31473 ft 359 kts 295°
2026-05-03 23:51 -23.91082 145.39289 31471 ft 359 kts 295°
2026-05-03 23:51 -23.88917 145.34377 31474 ft 359 kts 295°
2026-05-03 23:52 -23.86754 145.29466 31476 ft 359 kts 295°
2026-05-03 23:52 -23.84592 145.24554 31477 ft 359 kts 295°
2026-05-03 23:53 -23.82418 145.19612 31474 ft 359 kts 295°
2026-05-03 23:53 -23.80262 145.14706 31473 ft 358 kts 295°
2026-05-03 23:54 -23.78106 145.09796 31471 ft 358 kts 295°
2026-05-03 23:54 -23.75953 145.04889 31473 ft 358 kts 295°
2026-05-03 23:55 -23.73801 144.99982 31478 ft 358 kts 295°
2026-05-03 23:55 -23.71655 144.95085 31476 ft 358 kts 295°
2026-05-03 23:56 -23.69510 144.90187 31473 ft 358 kts 295°
2026-05-03 23:56 -23.67367 144.85289 31471 ft 358 kts 295°
2026-05-03 23:57 -23.65227 144.80394 31471 ft 358 kts 295°
2026-05-03 23:57 -23.63088 144.75497 31473 ft 358 kts 295°
2026-05-03 23:58 -23.60953 144.70606 31475 ft 357 kts 295°
2026-05-03 23:58 -23.58824 144.65726 31472 ft 357 kts 295°
2026-05-03 23:59 -23.56695 144.60843 31474 ft 357 kts 295°
2026-05-03 23:59 -23.54567 144.55959 31476 ft 357 kts 295°
2026-05-04 00:00 -23.52443 144.51081 31472 ft 356 kts 295°
2026-05-04 00:00 -23.50325 144.46210 31472 ft 355 kts 295°
2026-05-04 00:01 -23.48196 144.41313 31474 ft 355 kts 295°
2026-05-04 00:01 -23.46083 144.36448 31476 ft 355 kts 295°
2026-05-04 00:02 -23.43970 144.31581 31479 ft 355 kts 295°
2026-05-04 00:02 -23.41604 144.26857 31477 ft 356 kts 300°
2026-05-04 00:03 -23.39005 144.22259 31465 ft 357 kts 300°
2026-05-04 00:03 -23.36380 144.17653 31465 ft 358 kts 300°
2026-05-04 00:04 -23.34203 144.13831 31464 ft 358 kts 300°
2026-05-04 00:04 -23.31582 144.09225 31464 ft 358 kts 300°
2026-05-04 00:05 -23.28964 144.04623 31464 ft 358 kts 300°
2026-05-04 00:05 -23.26351 144.00025 31459 ft 358 kts 300°
2026-05-04 00:06 -23.23720 143.95394 31459 ft 357 kts 300°
2026-05-04 00:06 -23.21108 143.90792 31462 ft 357 kts 300°
2026-05-04 00:07 -23.18499 143.86194 31463 ft 357 kts 300°
2026-05-04 00:07 -23.15891 143.81595 31463 ft 357 kts 300°
2026-05-04 00:08 -23.13284 143.76996 31461 ft 357 kts 300°
2026-05-04 00:08 -23.10680 143.72398 31462 ft 357 kts 300°
2026-05-04 00:09 -23.08079 143.67804 31460 ft 357 kts 300°
2026-05-04 00:09 -23.05482 143.63215 31460 ft 357 kts 300°
2026-05-04 00:10 -23.02886 143.58624 31459 ft 357 kts 300°
2026-05-04 00:10 -23.00291 143.54033 31460 ft 357 kts 300°
2026-05-04 00:11 -22.97698 143.49443 31462 ft 357 kts 300°
2026-05-04 00:11 -22.95109 143.44858 31461 ft 356 kts 300°
2026-05-04 00:12 -22.92523 143.40275 31462 ft 356 kts 300°
2026-05-04 00:12 -22.89937 143.35690 31462 ft 356 kts 300°
2026-05-04 00:13 -22.87352 143.31103 31463 ft 356 kts 300°
2026-05-04 00:13 -22.84771 143.26522 31464 ft 356 kts 300°
2026-05-04 00:14 -22.82175 143.21913 31462 ft 355 kts 300°
2026-05-04 00:14 -22.79601 143.17339 31464 ft 356 kts 300°
2026-05-04 00:15 -22.77027 143.12763 31461 ft 355 kts 300°
2026-05-04 00:15 -22.74456 143.08190 31462 ft 355 kts 300°
2026-05-04 00:16 -22.71886 143.03616 31467 ft 355 kts 300°
2026-05-04 00:16 -22.69318 142.99043 31467 ft 355 kts 300°
2026-05-04 00:17 -22.66754 142.94475 31460 ft 355 kts 300°
2026-05-04 00:17 -22.64191 142.89907 31457 ft 355 kts 300°
2026-05-04 00:18 -22.61627 142.85334 31461 ft 355 kts 300°
2026-05-04 00:18 -22.59067 142.80766 31464 ft 355 kts 300°
2026-05-04 00:19 -22.56507 142.76196 31466 ft 355 kts 300°
2026-05-04 00:19 -22.53956 142.71639 31463 ft 354 kts 300°
2026-05-04 00:20 -22.51405 142.67081 31461 ft 354 kts 300°
2026-05-04 00:20 -22.48857 142.62525 31461 ft 354 kts 300°
2026-05-04 00:21 -22.46309 142.57966 31461 ft 354 kts 300°
2026-05-04 00:21 -22.43764 142.53411 31461 ft 354 kts 300°
2026-05-04 00:22 -22.41206 142.48829 31447 ft 354 kts 300°
2026-05-04 00:22 -22.38659 142.44266 31459 ft 355 kts 300°
2026-05-04 00:23 -22.36112 142.39700 31456 ft 355 kts 300°
2026-05-04 00:23 -22.33564 142.35131 31452 ft 355 kts 300°
2026-05-04 00:24 -22.31020 142.30565 31452 ft 355 kts 300°
2026-05-04 00:24 -22.28478 142.26001 31457 ft 354 kts 300°
2026-05-04 00:25 -22.25939 142.21441 31459 ft 354 kts 300°
2026-05-04 00:25 -22.23401 142.16878 31458 ft 354 kts 300°
2026-05-04 00:26 -22.20865 142.12318 31458 ft 354 kts 300°
2026-05-04 00:26 -22.18329 142.07756 31455 ft 354 kts 300°
2026-05-04 00:27 -22.15795 142.03194 31452 ft 354 kts 300°
2026-05-04 00:27 -22.13274 141.98655 31159 ft 354 kts 300°
2026-05-04 00:28 -22.11989 141.96338 30340 ft 365 kts 300°
2026-05-04 00:28 -22.10675 141.93972 29665 ft 369 kts 300°
2026-05-04 00:28 -22.09353 141.91590 29070 ft 371 kts 300°
2026-05-04 00:28 -22.08029 141.89204 28522 ft 371 kts 300°
2026-05-04 00:29 -22.06701 141.86810 27979 ft 372 kts 300°
2026-05-04 00:29 -22.05351 141.84378 27440 ft 373 kts 300°
2026-05-04 00:29 -22.04018 141.81972 26916 ft 375 kts 300°
2026-05-04 00:29 -22.02679 141.79554 26403 ft 376 kts 300°
2026-05-04 00:30 -22.01363 141.77113 25879 ft 378 kts 298°
2026-05-04 00:30 -22.00183 141.74572 25348 ft 380 kts 296°
2026-05-04 00:30 -21.99060 141.71983 24795 ft 383 kts 295°
2026-05-04 00:30 -21.97951 141.69365 24248 ft 385 kts 295°
2026-05-04 00:31 -21.96841 141.66726 23698 ft 388 kts 295°
2026-05-04 00:31 -21.95727 141.64072 23049 ft 390 kts 295°
2026-05-04 00:31 -21.94609 141.61406 22426 ft 391 kts 295°
2026-05-04 00:31 -21.93489 141.58733 21814 ft 392 kts 295°
2026-05-04 00:32 -21.92371 141.56061 21215 ft 391 kts 295°
2026-05-04 00:32 -21.91256 141.53396 20683 ft 388 kts 295°
2026-05-04 00:32 -21.90159 141.50773 20120 ft 381 kts 295°
2026-05-04 00:32 -21.89084 141.48197 19547 ft 374 kts 294°
2026-05-04 00:33 -21.88031 141.45672 18996 ft 366 kts 294°
2026-05-04 00:33 -21.85984 141.40760 17888 ft 353 kts 294°
2026-05-04 00:33 -21.84988 141.38367 17326 ft 347 kts 294°
2026-05-04 00:34 -21.84009 141.36015 16788 ft 341 kts 294°
2026-05-04 00:34 -21.83047 141.33700 16270 ft 336 kts 294°
2026-05-04 00:34 -21.82098 141.31420 15768 ft 332 kts 294°
2026-05-04 00:34 -21.81163 141.29172 15278 ft 327 kts 294°
2026-05-04 00:35 -21.80240 141.26952 14802 ft 322 kts 293°
2026-05-04 00:35 -21.79320 141.24741 14339 ft 333 kts 293°
2026-05-04 00:35 -21.78346 141.22400 13877 ft 348 kts 293°
2026-05-04 00:35 -21.77349 141.20009 13277 ft 350 kts 293°
2026-05-04 00:36 -21.76356 141.17629 12710 ft 347 kts 292°
2026-05-04 00:36 -21.75375 141.15275 12177 ft 343 kts 292°
2026-05-04 00:36 -21.74720 141.13700 11818 ft 340 kts 292°
2026-05-04 00:36 -21.73752 141.11371 11308 ft 343 kts 292°
2026-05-04 00:37 -21.72780 141.09031 10823 ft 341 kts 291°
2026-05-04 00:37 -21.71820 141.06721 10438 ft 333 kts 291°
2026-05-04 00:37 -21.70905 141.04520 10394 ft 311 kts 291°
2026-05-04 00:37 -21.70052 141.02465 10292 ft 293 kts 291°
2026-05-04 00:38 -21.69231 141.00480 9771 ft 290 kts 291°
2026-05-04 00:38 -21.68415 140.98503 9186 ft 289 kts 291°
2026-05-04 00:38 -21.67599 140.96533 8599 ft 288 kts 291°
2026-05-04 00:38 -21.66787 140.94571 8033 ft 287 kts 291°
2026-05-04 00:39 -21.65977 140.92616 7464 ft 286 kts 291°
2026-05-04 00:39 -21.65166 140.90662 6928 ft 285 kts 292°
2026-05-04 00:39 -21.64384 140.88780 6875 ft 266 kts 292°
2026-05-04 00:39 -21.63659 140.87026 6855 ft 249 kts 292°
2026-05-04 00:40 -21.62968 140.85271 6574 ft 262 kts 285°
2026-05-04 00:40 -21.62924 140.83363 6269 ft 254 kts 255°
2026-05-04 00:40 -21.63651 140.81639 5973 ft 256 kts 233°
2026-05-04 00:40 -21.64819 140.80220 5658 ft 253 kts 220°
2026-05-04 00:41 -21.66181 140.79002 5186 ft 257 kts 210°
2026-05-04 00:41 -21.67861 140.78453 4740 ft 253 kts 180°
2026-05-04 00:41 -21.69581 140.78703 4284 ft 249 kts 160°
2026-05-04 00:41 -21.71167 140.79431 3788 ft 249 kts 148°
2026-05-04 00:42 -21.72658 140.80393 3268 ft 251 kts 143°
2026-05-04 00:42 -21.74120 140.81463 2751 ft 244 kts 143°
2026-05-04 00:42 -21.75427 140.82456 2485 ft 215 kts 143°
2026-05-04 00:42 -21.76544 140.83317 2443 ft 179 kts 144°
2026-05-04 00:43 -21.77504 140.84062 2433 ft 165 kts 144°
2026-05-04 00:43 -21.78381 140.84749 2355 ft 142 kts 143°
2026-05-04 00:43 -21.79145 140.85348 1986 ft 136 kts 145°
2026-05-04 00:43 -21.79912 140.85969 1760 ft 141 kts 146°
2026-05-04 00:44 -21.80707 140.86623 1570 ft 146 kts 147°
2026-05-04 00:44 -21.81534 140.87195 1342 ft 131 kts 148°
2026-05-04 00:44 -21.82214 140.87750 1074 ft 125 kts 140°
2026-05-04 00:44 -21.82914 140.88282 930 ft 124 kts 143°
2026-05-04 00:45 -21.83554 140.88785 892 ft 93 kts 143°
2026-05-04 00:45 -21.83933 140.89076 882 ft 39 kts 144°
2026-05-04 00:45 -21.84012 140.89141 881 ft 8 kts 126°
2026-05-04 00:45 -21.84007 140.89179 881 ft 5 kts 60°
2026-05-04 00:46 -21.83984 140.89216 882 ft 6 kts 55°
2026-05-04 00:46 -21.83959 140.89257 883 ft 8 kts 56°
2026-05-04 00:46 -21.83940 140.89311 883 ft 7 kts 123°
2026-05-04 00:46 -21.83979 140.89350 882 ft 8 kts 139°
2026-05-04 00:47 -21.83991 140.89388 882 ft 1 kts 101°